{"data":{"norad_id":68635,"intl_designator":"2026-074J","name":"CANVAS","alt_names":[],"object_type":"PAYLOAD","status":"ACTIVE","operator":null,"country":"US","launch_date":"2026-04-07","launch_site_code":"AFWTR","launch_vehicle":null,"mission":null,"orbit_class":"UNKNOWN","rcs_meters":null,"size_class":null,"mass_kg":null,"dimensions":null,"purposes":[],"wikipedia_slug":null,"has_3d_model":false,"image_url":null,"decayed_at":null,"tle_current":{"epoch":"2026-05-24T17:59:18.915936Z","epoch_age_seconds":90532,"freshness":"FRESH","line1":"1 68635U 26074J   26144.74952449  .00009903  00000+0  40389-3 0  9995","line2":"2 68635  60.0226 268.0600 0025789   6.3878 353.7526 15.24758616  7217","mean_motion":15.24758616,"eccentricity":0.0025789,"inclination_deg":60.0226,"raan_deg":268.06,"arg_perigee_deg":6.3878,"mean_anomaly_deg":353.7526,"bstar":0.00040389,"rev_number":721,"period_min":94.441178091366,"perigee_km":473.79422552074,"apogee_km":509.22649266948,"semimajor_km":6869.6473590951,"source":"CELESTRAK","updated_at":"2026-05-25T13:38:07.989170Z"}}}